This is the latest recevied weather packets stored in our database for station/object DG8SF-13. If no packets are shown the sender has not sent any weather packets the latest 1 day(s).
| Time | Temp. | Humidity | Pressure | Rain* | Wind** | Luminosity | Snow |
|---|---|---|---|---|---|---|---|
| 1777978853 | 19.44° C | 61% | 1006.8 hPa | 0 mm | 0.45 m/s, 202° | - | - |
| 1777978544 | 19.44° C | 61% | 1006.8 hPa | 0 mm | 0.89 m/s, 135° | - | - |
| 1777978230 | 18.89° C | 61% | 1006.8 hPa | 0 mm | 0.89 m/s, 135° | - | - |
| 1777977919 | 20° C | 58% | 1006.8 hPa | 0 mm | 0.45 m/s, 158° | - | - |
| 1777977607 | 20° C | 58% | 1006.9 hPa | 0 mm | 0.45 m/s, 158° | - | - |
| 1777977297 | 20.56° C | 53% | 1006.9 hPa | 0 mm | 0.45 m/s, 158° | - | - |
| 1777976981 | 21.11° C | 51% | 1006.9 hPa | 0 mm | 0.45 m/s, 158° | - | - |
| 1777976670 | 21.11° C | 51% | 1006.9 hPa | 0 mm | 0 m/s | - | - |
| 1777976358 | 21.67° C | 51% | 1007 hPa | 0 mm | 0.45 m/s, 158° | - | - |
| 1777976046 | 20.56° C | 53% | 1007.1 hPa | 0 mm | 0.45 m/s, 158° | - | - |
| 1777975733 | 20° C | 54% | 1007.2 hPa | 0 mm | 0.45 m/s, 135° | - | - |
| 1777975423 | 20° C | 54% | 1007.2 hPa | 0 mm | 0.45 m/s, 135° | - | - |
| 1777975110 | 19.44° C | 58% | 1007.3 hPa | 0 mm | 0.45 m/s, 135° | - | - |
| 1777974799 | 18.89° C | 58% | 1007.2 hPa | 0 mm | 0.89 m/s, 135° | - | - |
| 1777974485 | 19.44° C | 59% | 1007.4 hPa | 0 mm | 0.89 m/s, 135° | - | - |
| 1777974174 | 19.44° C | 61% | 1007.4 hPa | 0 mm | 0.45 m/s, 135° | - | - |
| 1777973864 | 19.44° C | 59% | 1007.5 hPa | 0 mm | 0.45 m/s, 135° | - | - |
| 1777973551 | 19.44° C | 60% | 1007.5 hPa | 0 mm | 0.45 m/s, 135° | - | - |
| 1777973237 | 18.89° C | 62% | 1007.5 hPa | 0 mm | 0.45 m/s, 135° | - | - |
| 1777972925 | 18.33° C | 63% | 1007.6 hPa | 0 mm | 0.89 m/s, 135° | - | - |
| 1777972614 | 18.33° C | 63% | 1007.7 hPa | 0 mm | 0.89 m/s, 135° | - | - |
| 1777972303 | 18.89° C | 61% | 1007.6 hPa | 0 mm | 0.45 m/s, 135° | - | - |
| 1777971991 | 18.89° C | 60% | 1007.7 hPa | 0 mm | 0.45 m/s, 135° | - | - |
| 1777971677 | 18.89° C | 63% | 1007.6 hPa | 0 mm | 0.45 m/s, 158° | - | - |
| 1777971368 | 18.33° C | 63% | 1007.7 hPa | 0 mm | 0.45 m/s, 135° | - | - |
* Rain latest hour (hover to see other rain measurements)
** Current wind speed in m/s (hover to see current wind gust speed)